Hourly Data Report for October 25, 2014

All times are specified in Local Standard Time (LST). Add 1 hour to adjust for Daylight Saving Time where and when it is observed.

ST LEONARD CS
NEW BRUNSWICK

47°09'28.050" N
67°49'55.014" W
245.00 m
810I001
71019
WIY

Download Data

Hourly Data (October 2014)
Hourly Data Report for October 25, 2014
Temp Definition
°C
Dew Point Temp Definition
°C
Rel Hum Definition
%
Wind Dir Definition
10's deg

Wind Spd Definition
km/h
Visibility Definition
km
Stn Press Definition
kPa
Hmdx Definition


Wind Chill Definition


Weather Definition


TIME
00:00 4.4 3.6 95 34 1   97.55     LegendNANA
01:00 4.2 3.5 96 32 2   97.49     LegendNANA
02:00 3.9 3.1 94 0 1   97.45     LegendNANA
03:00 3.8 3.0 95 31 1   97.43     LegendNANA
04:00 3.6 2.9 95   0   97.38     LegendNANA
05:00 3.7 2.9 95   0   97.39     LegendNANA
06:00 4.0 2.7 91 1 1   97.44     LegendNANA
07:00 3.8 3.0 94 3 3   97.44     LegendNANA
08:00 4.0 2.9 93 0 1   97.45     LegendNANA
09:00 4.4 3.1 91 0 1   97.46     LegendNANA
10:00 5.0 3.4 90 36 1   97.44     LegendNANA
11:00 4.9 3.7 92 0 1   97.38     LegendNANA
12:00 5.7 4.4 91 0 1   97.31     LegendNANA
13:00 5.8 4.7 93   0   97.28     LegendNANA
14:00 5.4 4.6 94 12 LegendMM   97.23     LegendNANA
15:00 5.2 4.5 96 0 1   97.22     LegendNANA
16:00 5.5 4.8 95   0   97.23     LegendNANA
17:00 5.8 4.9 94   0   97.17     LegendNANA
18:00 5.3 4.8 96   0   97.12     LegendNANA
19:00 5.2 4.7 97   0   97.13     LegendNANA
20:00 5.0 4.5 97 0 1   97.10     LegendNANA
21:00 4.8 4.3 97 11 1   97.05     LegendNANA
22:00 4.7 4.3 97 11 1   96.97     LegendNANA
23:00 4.5 4.2 98 0 1   96.94     LegendNANA

Notes on Data Quality.

Legend

  • E = Estimated
  • M = Missing
  • NA = Not Available
  • ‡ = Partner data that is not subject to review by the National Climate Archives
Date modified: